Weather History for St. Cloud, MN

Change the Weather History Date:

Thursday, August 9, 2012

  Actual Average Record
Temperature  
Mean Temperature 65 °F 69 °F  
Max Temperature 76 °F 81 °F 96 °F (1900)
Min Temperature 54 °F 57 °F 46 °F (1972)
Degree Days  
Heating Degree Days 0 1  
Month to date heating degree days 0 9  
Since 1 June heating degree days 30 104  
Since 1 July heating degree days 0 26  
Cooling Degree Days 0 5  
Month to date cooling degree days 52 45  
Year to date cooling degree days 617 347  
Since 1 June cooling degree days 566 322  
Growing Degree Days 14 (Base 50)    
Moisture  
Dew Point 56 °F    
Average Humidity 72    
Maximum Humidity 100    
Minimum Humidity 43    
Precipitation  
Precipitation 0.00 in 0.12 in 1.75 in (1904)
Month to date precipitation 0.62 1.01  
Year to date precipitation 20.89 16.80  
Snow  
Snow 0.00 in 0.00 in 0.00 in ()
Month to date snowfall 0.0 0.0  
Since 1 June snowfall 0.0 0.0  
Since 1 July snowfall 0.0 0.0  
Snow Depth 0.00 in    
Sea Level Pressure  
Sea Level Pressure 30.04 in    
Wind  
Wind Speed 7 mph (North)    
Max Wind Speed 17 mph    
Max Gust Speed 23 mph    
Visibility 5 miles    
Events Fog    
T = Trace of Precipitation, MM = Missing Value Source: NWS Daily Summary

Daily Weather History Graph

Daily Weather History Graph

Search for Another Location

Airport:

Trip Planner

Search our weather history database for the weather conditions in past years. The results will help you decide how hot, cold, wet, or windy it might be!

Date:

Astronomy

Aug. 09, 2012 Rise Set
Actual Time 6:10 AM CDT 8:32 PM CDT
Civil Twilight 5:37 AM CDT 9:05 PM CDT
Nautical Twilight 4:55 AM CDT 9:46 PM CDT
Astronomical Twilight 4:09 AM CDT 10:32 PM CDT
Moon 11:57 PM CDT (8/9) 2:19 PM CDT (8/9)
Length of Visible Light 15h 28m
Length of Day
14h 22m
Waning Gibbous, 51% of the Moon is Illuminated
Aug 9
Waning Gibbous
Aug 9
Last Quarter
Aug 17
New
Aug 24
First Quarter
Aug 31
Full

Hourly Weather History & Observations

Time (CDT) Temp. Dew Point Humidity Pressure Visibility Wind Dir Wind Speed Gust Speed Precip Events Conditions
12:25 AM 59.0 °F 55.4 °F 88% 30.02 in 2.5 mi Calm Calm - N/A   Clear
12:33 AM 59.0 °F 55.4 °F 88% 30.02 in 10.0 mi Calm Calm - N/A   Clear
12:53 AM 57.9 °F 55.9 °F 93% 30.05 in 10.0 mi Calm Calm - N/A   Clear
12:58 AM 57.2 °F 55.4 °F 94% 30.02 in 1.5 mi Calm Calm - N/A   Clear
1:08 AM 57.2 °F 55.4 °F 94% 30.02 in 0.8 mi NNW 3.5 mph - N/A   Clear
1:17 AM 55.4 °F 55.4 °F 100% 30.02 in 2.0 mi Calm Calm - N/A   Clear
1:29 AM 55.4 °F 55.4 °F 100% 30.02 in 0.8 mi Calm Calm - N/A   Clear
1:39 AM 57.2 °F 55.4 °F 94% 30.02 in 2.0 mi Calm Calm - N/A   Clear
1:53 AM 57.9 °F 57.0 °F 97% 30.05 in 4.0 mi Calm Calm - N/A   Clear
1:57 AM 57.2 °F 55.4 °F 94% 30.02 in 1.8 mi Calm Calm - N/A   Clear
2:09 AM 55.4 °F 55.4 °F 100% 30.03 in 0.5 mi Calm Calm - N/A Fog Fog
2:20 AM 55.4 °F 55.4 °F 100% 30.02 in 0.2 mi Calm Calm - N/A Fog Fog
2:31 AM 57.2 °F 55.4 °F 94% 30.03 in 1.0 mi Calm Calm - N/A   Mist
2:33 AM 57.2 °F 55.4 °F 94% 30.03 in 2.0 mi Calm Calm - N/A   Partly Cloudy
2:38 AM 55.4 °F 55.4 °F 100% 30.02 in 0.8 mi Calm Calm - N/A   Mist
2:53 AM 54.0 °F 54.0 °F 100% 30.06 in 0.5 mi Calm Calm - N/A Fog Fog
3:00 AM 55.4 °F 53.6 °F 94% 30.03 in 0.2 mi Calm Calm - N/A Fog Fog
3:10 AM 55.4 °F 53.6 °F 94% 30.03 in 0.5 mi Calm Calm - N/A Fog Fog
3:21 AM 55.4 °F 55.4 °F 100% 30.03 in 1.2 mi Calm Calm - N/A   Partly Cloudy
3:24 AM 55.4 °F 53.6 °F 94% 30.03 in 0.8 mi Calm Calm - N/A   Mist
3:36 AM 55.4 °F 53.6 °F 94% 30.02 in 0.5 mi Calm Calm - N/A Fog Fog
3:43 AM 55.4 °F 53.6 °F 94% 30.02 in 0.2 mi Calm Calm - N/A Fog Fog
3:53 AM 54.0 °F 53.1 °F 97% 30.05 in 0.5 mi Calm Calm - N/A Fog Fog
4:11 AM 55.4 °F 53.6 °F 94% 30.02 in 1.2 mi Calm Calm - N/A   Overcast
4:26 AM 55.4 °F 53.6 °F 94% 30.02 in 0.5 mi Calm Calm - N/A Fog Fog
4:45 AM 57.2 °F 55.4 °F 94% 30.02 in 2.0 mi Calm Calm - N/A   Overcast
4:53 AM 57.0 °F 55.9 °F 96% 30.04 in 8.0 mi Calm Calm - N/A   Overcast
5:22 AM 57.2 °F 55.4 °F 94% 30.01 in 1.5 mi Calm Calm - N/A   Mostly Cloudy
5:39 AM 57.2 °F 55.4 °F 94% 30.01 in 2.0 mi Calm Calm - N/A   Mostly Cloudy
5:44 AM 57.2 °F 55.4 °F 94% 30.01 in 0.8 mi Calm Calm - N/A   Mist
5:53 AM 57.0 °F 55.0 °F 93% 30.04 in 0.2 mi Calm Calm - N/A Fog Fog
6:11 AM 57.2 °F 55.4 °F 94% 30.01 in 0.5 mi Calm Calm - N/A Fog Fog
6:23 AM 57.2 °F 55.4 °F 94% 30.02 in 0.2 mi Calm Calm - N/A Fog Fog
6:53 AM 57.9 °F 57.0 °F 97% 30.04 in 0.2 mi Calm Calm - N/A Fog Fog
7:19 AM 59.0 °F 57.2 °F 94% 30.02 in 0.5 mi Calm Calm - N/A Fog Fog
7:35 AM 60.8 °F 59.0 °F 94% 30.01 in 2.0 mi Calm Calm - N/A   Overcast
7:42 AM 60.8 °F 60.8 °F 100% 30.02 in 3.0 mi Calm Calm - N/A   Overcast
7:45 AM 60.8 °F 60.8 °F 100% 30.02 in 1.8 mi Calm Calm - N/A   Overcast
7:53 AM 62.1 °F 60.1 °F 93% 30.04 in 3.0 mi West 3.5 mph - N/A   Overcast
8:02 AM 62.6 °F 60.8 °F 94% 30.02 in 7.0 mi West 3.5 mph - N/A   Overcast
8:15 AM 62.6 °F 60.8 °F 94% 30.01 in 9.0 mi West 3.5 mph - N/A   Overcast
8:25 AM 64.4 °F 62.6 °F 94% 30.01 in 10.0 mi NW 3.5 mph - N/A   Mostly Cloudy
8:53 AM 66.0 °F 62.1 °F 87% 30.03 in 10.0 mi NNW 5.8 mph - N/A   Mostly Cloudy
9:28 AM 66.2 °F 60.8 °F 83% 30.02 in 10.0 mi North 11.5 mph 19.6 mph N/A   Mostly Cloudy
9:53 AM 69.1 °F 60.1 °F 73% 30.03 in 10.0 mi North 8.1 mph - N/A   Scattered Clouds
10:17 AM 71.6 °F 60.8 °F 69% 30.02 in 10.0 mi North 10.4 mph - N/A   Mostly Cloudy
10:53 AM 70.0 °F 57.9 °F 65% 30.04 in 10.0 mi North 10.4 mph 17.3 mph N/A   Mostly Cloudy
11:00 AM 69.8 °F 57.2 °F 64% 30.02 in 10.0 mi North 8.1 mph - N/A   Mostly Cloudy
11:53 AM 75.0 °F 57.0 °F 53% 30.05 in 10.0 mi North 11.5 mph 18.4 mph N/A   Scattered Clouds
12:53 PM 73.9 °F 53.1 °F 48% 30.04 in 10.0 mi NNW 10.4 mph 21.9 mph N/A   Partly Cloudy
1:53 PM 73.9 °F 53.1 °F 48% 30.04 in 10.0 mi North 15.0 mph 23.0 mph N/A   Partly Cloudy
2:53 PM 73.9 °F 51.1 °F 45% 30.06 in 10.0 mi North 18.4 mph 23.0 mph N/A   Partly Cloudy
3:53 PM 75.0 °F 51.1 °F 43% 30.06 in 10.0 mi North 12.7 mph - N/A   Clear
4:53 PM 75.0 °F 52.0 °F 44% 30.06 in 10.0 mi North 9.2 mph 21.9 mph N/A   Scattered Clouds
5:53 PM 75.0 °F 52.0 °F 44% 30.06 in 10.0 mi North 11.5 mph 18.4 mph N/A   Clear
6:53 PM 71.1 °F 55.9 °F 59% 30.08 in 10.0 mi ENE 5.8 mph 18.4 mph N/A   Scattered Clouds
7:53 PM 68.0 °F 55.9 °F 65% 30.09 in 10.0 mi ENE 5.8 mph - N/A   Scattered Clouds
8:53 PM 64.9 °F 53.1 °F 65% 30.12 in 10.0 mi NE 9.2 mph 20.7 mph N/A   Clear
9:53 PM 62.1 °F 53.1 °F 72% 30.15 in 10.0 mi NE 9.2 mph 18.4 mph N/A   Clear
10:53 PM 59.0 °F 53.1 °F 81% 30.17 in 10.0 mi Variable 5.8 mph - N/A   Clear
11:53 PM 57.0 °F 53.1 °F 87% 30.17 in 10.0 mi North 3.5 mph - N/A   Clear